Dewpoint
-25 -25 -25 -26 -26 -27 -27 -27 -28 -29 -30 -30 -25 -22 -14 -4 -1 -5 -12 -13 -12 -10 -5 -8 -0 9 14 16 17 14 16 17 17 16 16 13 15 15 14 15 15 15 14 14 13
-25 -25 -25 -26 -27 -27 -28 -28 -29 -28 -29 -30 -28 -23 -19 -6 -3 -2 -12 -15 -14 -13 -7 -5 -3 8 14 15 16 16 17 16 13 12 12 13 14 14 15 15 15 15 14 13 14
-25 -25 -26 -27 -27 -28 -28 -28 -29 -27 -24 -26 -26 -22 -14 -7 -3 -3 -6 -16 -15 -12 -9 -1 0 2 4 9 15 15 16 14 12 12 12 12 13 15 15 16 15 16 15 12 11
-25 -25 -27 -27 -27 -28 -25 -23 -19 -14 -14 -20 -16 -18 -12 -8 1 -4 -7 -6 -15 -11 -9 -8 1 2 4 9 11 14 13 12 11 10 11 11 10 15 15 15 15 14 14 12 12
-25 -26 -27 -27 -27 -28 -21 -10 -8 -6 -7 -11 -9 -10 -4 -4 -6 -2 -6 -8 -11 -9 -8 -7 -6 -3 3 7 9 12 12 11 11 10 10 8 10 14 15 15 15 15 14 12 13
-23 -23 -24 -25 -26 -25 -14 -8 -6 -6 -8 -6 -6 -4 -0 2 -7 -3 -3 -6 -8 -11 -7 -6 -5 -1 1 3 9 10 11 10 11 10 10 11 10 12 16 16 15 15 15 15 14
-21 -21 -23 -24 -25 -22 -10 -8 -9 -11 -8 -8 -4 -1 2 -18 -7 -1 -0 -3 -8 -8 -9 -9 -6 -2 0 3 3 5 8 9 10 10 10 11 11 16 16 16 15 15 15 16 15
-18 -19 -19 -22 -24 -22 -8 -7 -10 -7 0 1 3 7 1 -25 -10 -6 -1 -2 -1 -7 -9 -10 -9 -3 -2 -1 -4 5 6 10 10 11 11 9 12 15 16 15 16 15 15 15 15
-10 -14 -17 -19 -22 -19 -7 -7 -14 -5 -1 -5 5 8 3 -5 -1 -0 -2 -1 0 -5 -7 -9 -7 -4 -3 -3 -2 4 7 8 10 10 11 11 11 15 16 15 15 15 15 15 14
-8 -10 -12 -16 -20 -19 -7 -7 -16 -13 4 -5 6 7 -3 -4 -1 1 0 -1 0 -3 -4 -5 -6 -4 -3 -2 2 5 8 7 8 10 10 12 10 14 15 15 15 15 15 15 14
-9 -8 -9 -13 -17 -13 -6 -11 -11 -12 -11 -11 -11 -7 -8 -16 -12 -2 -0 -1 1 -1 -1 -3 -3 -1 -3 -3 -3 2 5 7 6 6 11 10 11 11 14 14 15 15 15 15 15
-10 -7 -7 -10 -15 -9 -6 -10 -10 -10 -11 -11 -10 -11 -11 -11 -10 -5 -2 -2 -2 0 -1 0 -1 -4 -1 -3 -3 -1 2 5 6 5 7 9 11 10 13 14 14 15 15 15 15
-9 -7 -8 -9 -13 -14 -11 -11 -10 -10 -11 -10 -9 -10 -11 -10 -10 -11 -6 -2 -1 -2 -0 1 1 -1 -0 -0 -2 -1 1 1 7 5 3 7 9 12 11 13 14 14 14 14 13
-13 -10 -9 -10 -14 -10 -11 -12 -10 -9 -6 -6 -9 -11 -14 -10 -10 -9 -11 -6 -2 -3 -4 0 -1 0 1 1 -1 1 -2 -0 3 6 8 5 10 8 11 13 13 13 13 13 12
-16 -16 -8 -9 -11 -10 -10 -10 -9 -9 -8 -9 -13 -13 -16 -13 -12 -7 -7 -6 -2 -2 -5 -2 -0 1 2 1 -0 0 -2 -0 2 6 6 6 8 7 11 15 13 12 12 11 13
-15 -18 -7 -7 -8 -8 -8 -8 -9 -6 -2 -11 -13 -14 -15 -14 -12 -9 -8 -6 -4 -3 -3 -3 -4 -1 1 1 1 -1 1 2 2 4 7 6 6 7 13 14 13 11 12 10 13
-16 -15 -4 -5 -6 -7 -7 -7 -6 -5 -11 -10 -11 -14 -15 -9 -10 -7 -6 -4 1 5 -0 -3 -3 -2 0 2 1 1 3 6 7 6 7 5 5 5 10 12 12 11 13 12 12
-17 -6 -3 -4 -5 -6 -5 -6 -2 -7 -9 -11 -12 -14 -10 -5 -6 -6 -4 -3 2 4 6 -2 -1 -2 -2 2 3 2 2 6 8 6 4 1 5 3 -0 3 11 11 12 13 11
-15 -4 -2 -2 -2 -4 -2 -3 -4 -5 -9 -9 -12 -11 -9 -11 -5 -4 -3 -1 -0 3 6 6 -1 -1 -1 -1 1 3 3 -1 -0 -1 1 1 -1 -2 -3 -2 10 12 12 13 12
-13 -3 -1 -2 -3 -4 -6 -2 -4 -7 -10 -10 -5 -10 -8 -8 -4 -4 -3 -4 -3 0 2 4 6 -1 -1 -2 -0 -0 -1 1 -2 3 0 -1 -2 1 -3 -4 -3 11 12 13 11
-10 -0 -1 -3 -4 -4 -3 -4 -5 -8 -9 -5 -4 -5 -5 -4 -4 -6 -4 -6 -1 1 1 3 4 3 -3 -3 2 -0 -0 -2 -1 -3 -0 -0 -2 -5 -4 -3 -4 3 11 11 11
-5 0 -0 -3 -2 -2 -0 -1 -2 -2 -4 -5 -5 -4 -4 -4 -2 -3 -0 1 -1 3 3 3 5 7 2 -4 -5 2 -4 -4 -2 -2 -3 -1 -2 -7 -6 -5 -6 -6 9 10 10
-0 1 -1 -3 0 0 -1 -1 -2 -1 -2 -4 -4 -5 -5 -4 -1 1 -0 -2 -0 3 5 5 7 8 3 -3 -5 -4 0 -6 -6 -5 -3 -3 -4 -7 -6 -3 -1 -4 -3 9 10
2 1 -1 -1 -1 0 1 1 -0 -1 -1 -2 -3 -5 -2 -2 -1 1 1 1 1 0 2 5 6 7 8 4 2 -1 -3 -3 -6 -4 -4 -4 -5 -6 -7 -4 0 -3 -4 3 9
1 1 2 1 0 1 0 -1 0 0 -2 -2 -1 -1 -1 0 -1 -0 -0 -2 -2 1 3 4 6 3 2 1 1 2 0 -2 -5 -5 -4 -5 -3 -5 -5 -2 1 -1 -1 4 9
1 1 1 1 1 0 0 1 3 1 1 1 1 0 1 -1 -1 -1 -2 -2 -0 1 3 3 4 2 1 2 3 4 2 2 -4 -6 -3 -5 -3 -6 -2 2 5 6 3 6 9
2 2 2 2 2 2 1 2 2 1 1 -0 0 2 1 -1 -4 -5 -5 -4 -0 2 2 4 2 3 5 4 4 6 3 3 -2 -6 -6 -3 -4 1 4 9 10 1 4 7 8
Wind_Speed
23 23 24 24 24 24 24 24 23 21 20 16 15 15 19 18 18 22 31 26 18 12 9 18 20 14 19 17 10 3 2 4 10 6 4 6 5 13 12 19 6 8 21 41 50
24 24 25 26 26 25 25 25 25 22 19 18 17 16 16 18 21 29 24 20 19 21 18 24 24 23 14 16 8 9 2 7 7 4 4 1 3 14 10 11 21 29 31 52 43
25 25 26 26 27 27 27 26 24 23 22 20 17 15 13 15 21 11 1 15 25 24 26 20 17 22 15 11 16 14 6 7 6 10 7 11 16 8 21 9 35 41 42 51 40
26 27 27 27 27 27 27 26 24 24 25 23 18 14 13 10 5 5 5 3 25 29 31 25 22 17 8 10 21 6 17 16 11 7 6 7 11 13 13 12 35 50 53 52 42
27 27 27 27 28 28 26 25 26 27 25 23 19 14 10 9 26 11 7 6 22 33 33 31 27 20 9 13 22 14 16 19 18 10 15 0 1 12 12 27 36 38 45 48 45
28 28 28 28 28 26 24 25 26 26 25 25 20 17 9 7 8 8 20 6 13 34 33 30 26 29 10 14 15 11 25 22 20 16 13 7 2 6 22 39 40 42 40 40 44
30 31 30 29 28 25 23 24 28 35 27 20 18 17 14 29 6 5 14 22 12 24 37 37 21 26 15 5 37 26 16 10 12 19 6 11 3 11 31 38 41 40 40 35 42
30 29 29 28 28 25 22 24 29 27 18 15 15 11 14 8 11 25 16 21 17 17 26 30 31 22 11 13 12 7 9 13 14 10 2 12 7 17 35 38 35 37 37 36 41
34 32 31 30 28 25 22 26 31 15 14 20 5 6 15 6 10 11 25 25 21 19 25 22 23 17 10 4 5 4 8 8 18 20 12 11 5 25 38 37 36 38 37 35 41
40 38 33 31 28 24 22 26 26 17 15 18 6 9 9 3 15 18 11 25 27 21 19 20 15 5 7 5 11 5 5 6 9 16 16 21 11 22 38 35 36 37 38 35 38
39 40 39 30 27 20 22 26 33 11 26 26 34 30 46 38 36 20 2 27 26 23 9 19 10 16 23 12 6 6 7 10 6 10 25 21 22 20 37 32 33 37 36 39 42
37 38 44 35 24 14 16 19 21 22 18 24 16 22 29 24 17 20 9 24 18 18 9 4 18 18 6 9 11 14 11 14 15 12 10 17 19 23 26 33 44 39 38 40 39
38 37 44 38 22 12 14 19 21 26 4 18 8 13 19 13 9 29 12 9 6 9 16 19 7 15 15 14 15 15 16 16 11 6 8 7 6 19 24 32 35 38 47 46 44
37 38 39 34 12 20 18 21 18 30 4 7 8 9 23 10 4 24 19 17 9 18 10 16 20 19 17 21 18 16 20 18 17 7 5 6 12 9 23 19 24 36 38 42 43
37 37 34 21 16 20 25 22 24 4 4 5 9 13 21 19 17 20 25 11 18 11 10 17 21 24 22 26 20 19 14 14 17 5 2 15 6 11 28 23 23 28 40 37 46
38 37 26 14 13 19 27 29 9 5 4 4 9 13 14 24 18 23 21 26 14 18 20 15 19 21 27 17 20 13 11 9 6 4 10 16 6 9 21 29 29 35 37 42 41
37 36 18 10 11 19 24 28 5 3 11 9 8 9 7 15 11 15 13 11 8 9 14 18 22 23 14 19 14 13 7 7 4 7 9 9 6 13 26 29 35 36 38 44 43
38 24 11 7 13 14 21 6 2 11 3 6 7 6 7 12 4 17 13 9 18 14 7 15 19 23 21 12 19 14 11 6 9 5 7 6 9 12 12 22 53 59 54 51 47
36 18 14 17 17 14 6 3 2 6 8 11 7 5 5 7 1 10 10 2 12 20 11 9 16 4 20 19 15 11 18 11 5 2 4 4 5 9 12 7 24 36 39 42 48
39 10 15 23 18 10 3 5 4 6 9 7 5 5 5 7 7 8 6 10 11 16 18 5 9 12 28 11 20 18 9 9 4 12 5 5 6 10 11 12 14 29 40 48 49
30 10 15 33 15 9 2 3 5 22 13 5 3 3 4 2 4 6 3 9 17 18 15 9 5 13 4 10 23 4 15 6 7 6 10 4 10 8 11 12 10 20 48 51 53
21 4 17 21 11 6 3 7 13 13 18 6 4 3 1 3 1 3 6 3 17 17 10 9 6 7 10 12 4 21 8 10 9 10 3 4 12 6 12 12 11 17 46 53 56
16 8 12 15 4 4 6 7 10 9 7 4 3 4 3 2 3 1 3 7 13 11 7 8 3 8 10 4 3 5 12 10 7 6 10 13 15 6 6 8 20 26 34 53 56
9 4 8 7 10 3 5 5 8 13 0 9 5 3 4 2 4 3 2 4 8 14 9 9 4 9 8 9 10 5 12 9 17 8 10 11 11 7 15 14 16 18 33 43 52
4 2 2 4 6 11 8 7 10 6 6 11 7 5 4 5 5 4 3 5 5 6 3 2 8 11 20 27 25 24 12 13 14 14 14 11 7 9 9 12 8 13 29 35 45
5 4 4 8 10 9 5 4 9 10 8 12 5 14 12 7 9 7 6 5 3 2 3 3 5 15 23 18 18 18 6 7 13 17 6 8 8 8 7 18 8 14 29 31 41
4 8 5 5 4 3 3 9 13 17 6 12 13 7 9 12 17 24 25 21 10 8 6 5 4 6 6 6 6 5 13 7 6 7 9 11 10 4 8 9 17 11 27 27 30
Wind_Direction
5 2 360 357 354 350 345 341 339 337 332 322 315 304 297 287 270 261 251 240 230 217 172 170 168 164 178 199 184 159 110 144 188 222 257 345 160 162 120 140 136 193 159 156 149
4 1 358 355 353 349 345 340 338 337 332 323 315 306 294 292 286 267 275 252 229 213 192 177 177 174 186 212 203 201 184 214 210 225 156 131 172 130 137 131 109 110 132 148 150
3 360 357 355 353 350 346 341 339 337 334 324 315 304 292 296 301 291 267 219 203 203 193 183 176 182 205 215 213 198 216 158 204 219 216 197 136 139 136 149 152 144 150 158 158
2 359 356 354 352 349 346 343 340 337 331 325 318 302 287 276 249 130 85 134 186 189 190 177 182 188 187 213 223 262 231 219 211 236 231 210 168 179 186 186 168 160 158 164 165
1 359 356 354 351 348 347 346 342 333 327 321 318 305 282 246 248 197 179 129 179 184 188 188 192 194 192 209 241 237 248 236 225 219 232 109 145 208 185 149 151 151 159 163 171
359 357 355 353 351 349 348 348 347 343 334 317 306 305 254 247 309 218 228 218 197 190 195 190 198 193 223 234 210 239 236 256 200 211 232 187 275 2 149 149 150 156 164 169 175
359 356 354 352 352 348 351 353 344 336 324 311 296 293 247 248 228 193 212 224 218 209 196 199 187 192 220 210 237 246 267 251 191 214 182 156 250 156 160 154 157 166 168 174 180
355 352 352 352 351 346 354 347 346 344 4 348 303 278 257 283 268 220 215 214 223 219 218 204 195 212 241 267 314 226 229 242 211 162 202 158 216 160 166 160 165 172 174 178 183
358 352 349 353 350 344 352 350 349 352 349 357 334 289 267 272 282 303 215 219 204 204 211 203 202 224 244 216 309 210 240 234 220 185 154 195 185 164 174 167 168 175 180 183 188
360 355 349 349 348 342 345 346 3 1 331 342 324 306 274 339 320 318 243 207 192 192 199 206 203 180 219 163 213 201 195 217 229 197 184 199 212 166 178 173 172 176 183 188 193
355 352 348 345 348 342 347 3 12 339 312 285 271 266 280 295 294 291 319 192 203 183 179 196 188 206 213 209 239 252 216 243 250 202 188 206 218 176 178 177 177 185 188 190 192
352 349 341 343 347 349 350 24 2 328 310 330 323 276 279 298 291 263 293 192 192 205 163 164 217 218 196 196 211 235 246 252 267 266 179 210 218 176 178 184 184 182 190 197 194
349 346 340 337 343 339 352 355 354 350 278 299 350 17 352 304 236 273 280 274 194 197 199 204 230 204 203 222 218 226 229 246 235 298 293 165 194 167 202 184 186 187 196 192 194
346 347 342 335 360 352 355 352 351 339 37 275 4 19 354 355 255 334 290 239 237 222 212 224 232 201 206 219 210 222 227 240 255 249 244 203 235 170 185 186 191 194 198 198 194
344 347 339 336 351 1 350 352 343 7 350 56 12 0 359 33 337 341 1 259 219 252 179 220 203 218 213 213 206 224 231 231 248 224 194 271 223 225 176 181 199 205 210 204 196
344 344 334 329 6 359 354 349 347 45 254 34 37 343 12 14 344 351 2 3 281 228 258 230 236 206 228 225 225 209 225 244 242 192 242 248 228 243 179 186 202 213 211 211 202
344 346 334 331 344 357 345 349 40 117 351 6 349 347 18 359 348 5 359 27 42 327 232 228 236 231 212 216 211 223 160 228 260 227 233 219 221 241 181 197 196 209 211 206 203
347 356 15 35 350 340 336 20 79 352 70 302 336 352 37 26 342 356 5 6 35 31 304 216 231 224 216 208 203 221 196 166 210 207 222 216 207 240 228 191 199 204 203 199 204
350 8 23 6 316 308 309 26 242 347 331 344 344 36 10 359 304 9 347 64 45 40 16 339 237 218 222 217 191 202 215 185 126 212 173 219 210 269 255 176 187 200 198 201 209
346 359 15 346 348 307 97 228 270 319 355 357 38 19 347 7 11 4 350 11 342 39 14 321 294 239 234 233 216 202 159 188 178 220 241 262 210 212 227 242 176 192 198 203 209
351 345 348 339 307 352 67 324 309 356 5 61 22 351 354 19 327 336 336 328 7 350 3 325 257 299 293 214 219 174 205 194 161 162 225 228 245 198 219 231 217 179 195 200 204
353 347 353 351 44 16 21 323 315 10 3 16 5 20 254 314 299 347 344 320 357 6 342 331 297 289 249 246 299 222 187 185 204 213 199 191 256 208 214 218 227 228 193 198 199
344 303 341 26 55 336 304 312 328 354 342 10 311 40 289 315 352 7 334 329 7 7 25 8 343 314 308 23 260 209 211 196 175 142 198 219 255 244 249 237 230 232 188 193 197
339 348 338 15 30 359 331 283 334 331 56 327 286 283 3 333 191 261 317 18 1 324 324 355 271 251 279 305 322 278 224 201 193 196 198 219 251 282 284 285 297 246 188 175 192
358 0 13 323 337 318 307 277 327 333 355 359 340 40 287 295 313 234 226 292 17 9 53 303 265 261 258 264 272 262 251 209 202 193 196 222 203 247 264 275 261 187 170 167 178
328 334 331 284 299 310 305 346 324 331 335 318 322 319 325 222 211 256 250 271 172 22 322 232 267 307 288 257 227 242 243 266 211 202 150 190 238 240 252 291 108 118 154 162 171
280 299 261 257 268 289 284 322 309 320 326 308 313 299 295 275 281 249 247 242 187 170 230 193 262 335 267 314 188 71 356 7 205 166 187 202 227 151 57 351 22 49 107 155 167
Height
1524 1520 1517 1513 1510 1506 1502 1499 1497 1495 1491 1489 1487 1485 1482 1480 1480 1478 1473 1478 1485 1489 1492 1495 1500 1503 1506 1507 1509 1509 1512 1518 1517 1515 1512 1501 1497 1500 1497 1501 1502 1503 1504 1512 1523
1523 1519 1515 1512 1508 1504 1500 1496 1493 1491 1488 1486 1484 1481 1479 1477 1474 1469 1468 1473 1480 1485 1489 1491 1496 1501 1504 1505 1507 1507 1514 1509 1501 1498 1499 1498 1495 1496 1500 1502 1505 1506 1512 1519 1525
1523 1518 1514 1510 1507 1502 1498 1494 1491 1488 1485 1482 1480 1478 1477 1476 1471 1461 1461 1463 1471 1479 1486 1491 1495 1499 1502 1502 1501 1499 1502 1497 1495 1494 1495 1495 1494 1496 1499 1506 1494 1500 1513 1521 1525
1522 1518 1514 1509 1505 1501 1496 1492 1489 1485 1482 1479 1477 1475 1474 1475 1474 1460 1460 1461 1465 1474 1482 1487 1493 1497 1499 1498 1493 1496 1489 1492 1490 1487 1487 1488 1493 1493 1491 1490 1497 1496 1502 1514 1524
1521 1517 1512 1508 1504 1499 1495 1490 1487 1483 1479 1475 1473 1472 1472 1471 1457 1459 1460 1461 1463 1469 1474 1480 1486 1490 1493 1490 1491 1491 1484 1484 1487 1485 1482 1482 1491 1493 1494 1495 1502 1509 1512 1516 1522
1520 1516 1511 1507 1502 1497 1493 1489 1484 1480 1476 1472 1469 1468 1469 1469 1453 1453 1457 1460 1462 1465 1472 1478 1479 1484 1488 1486 1489 1478 1483 1480 1485 1487 1483 1487 1490 1493 1498 1495 1500 1507 1514 1518 1521
1520 1515 1510 1505 1500 1496 1492 1488 1483 1476 1469 1466 1464 1462 1463 1449 1451 1451 1452 1457 1460 1461 1465 1471 1477 1483 1481 1483 1479 1480 1485 1479 1482 1483 1483 1486 1491 1493 1496 1498 1501 1507 1511 1517 1521
1519 1514 1509 1505 1500 1494 1490 1486 1480 1473 1467 1463 1461 1459 1450 1445 1445 1446 1450 1452 1457 1460 1463 1468 1475 1479 1479 1478 1476 1479 1481 1486 1475 1479 1481 1484 1498 1494 1496 1496 1503 1508 1512 1515 1519
1517 1511 1506 1502 1498 1493 1489 1484 1478 1471 1466 1463 1461 1458 1444 1442 1442 1444 1446 1448 1454 1459 1463 1469 1476 1476 1478 1482 1488 1477 1490 1482 1472 1470 1474 1487 1491 1488 1495 1496 1500 1505 1510 1514 1518
1515 1509 1504 1500 1496 1491 1487 1482 1475 1470 1466 1463 1462 1462 1442 1442 1442 1439 1444 1448 1452 1456 1463 1467 1470 1472 1474 1482 1490 1486 1484 1476 1474 1465 1469 1477 1480 1482 1490 1495 1497 1502 1506 1511 1515
1515 1508 1502 1498 1494 1490 1485 1479 1476 1472 1468 1466 1459 1458 1446 1442 1442 1436 1442 1446 1451 1454 1458 1458 1467 1466 1457 1466 1468 1469 1472 1475 1461 1453 1468 1469 1470 1475 1483 1493 1495 1496 1502 1503 1504
1514 1508 1499 1495 1493 1490 1488 1486 1490 1490 1468 1452 1451 1449 1446 1446 1444 1432 1437 1440 1444 1446 1449 1458 1456 1448 1455 1460 1465 1466 1471 1468 1457 1451 1457 1459 1463 1466 1478 1477 1478 1486 1494 1496 1500
1513 1507 1498 1491 1489 1490 1487 1486 1484 1481 1476 1452 1447 1446 1445 1444 1443 1434 1440 1436 1434 1443 1443 1448 1440 1446 1450 1455 1460 1460 1466 1464 1464 1452 1448 1450 1463 1472 1479 1477 1479 1481 1478 1481 1484
1511 1504 1497 1487 1490 1488 1485 1482 1480 1478 1483 1461 1450 1450 1446 1442 1442 1443 1437 1439 1432 1432 1440 1439 1436 1440 1445 1448 1449 1463 1446 1453 1455 1465 1482 1446 1481 1465 1469 1474 1473 1473 1476 1477 1479
1509 1503 1495 1490 1490 1488 1485 1478 1475 1474 1488 1451 1457 1455 1452 1452 1450 1435 1437 1434 1428 1429 1431 1426 1429 1435 1439 1432 1436 1442 1443 1450 1450 1464 1467 1460 1472 1450 1455 1472 1466 1466 1466 1470 1471
1506 1500 1494 1492 1490 1488 1482 1477 1474 1484 1483 1458 1461 1458 1450 1450 1447 1441 1438 1434 1425 1426 1422 1418 1420 1421 1421 1427 1432 1435 1444 1448 1450 1462 1479 1460 1465 1455 1456 1455 1457 1453 1457 1458 1464
1503 1497 1491 1491 1490 1486 1482 1477 1487 1489 1463 1470 1468 1462 1459 1457 1453 1452 1450 1450 1461 1455 1424 1418 1414 1413 1415 1427 1428 1435 1451 1476 1486 1480 1481 1454 1466 1443 1435 1438 1440 1444 1450 1452 1455
1500 1494 1490 1490 1489 1487 1483 1484 1491 1477 1478 1472 1469 1465 1466 1463 1461 1457 1455 1457 1457 1460 1461 1423 1429 1407 1403 1414 1424 1431 1441 1472 1486 1485 1474 1450 1460 1434 1417 1421 1423 1430 1433 1442 1448
1499 1493 1490 1491 1489 1487 1488 1498 1490 1482 1474 1472 1468 1469 1470 1466 1467 1464 1467 1462 1462 1470 1481 1474 1411 1393 1398 1400 1408 1423 1431 1432 1459 1457 1470 1449 1433 1421 1412 1417 1422 1431 1438 1442 1443
1498 1492 1490 1489 1486 1484 1487 1492 1485 1476 1471 1472 1480 1475 1478 1473 1470 1467 1468 1464 1467 1472 1481 1476 1463 1396 1388 1396 1397 1400 1411 1439 1450 1468 1478 1453 1441 1432 1418 1410 1416 1421 1427 1429 1435
1497 1492 1491 1485 1482 1481 1494 1489 1482 1476 1471 1474 1478 1478 1478 1479 1473 1470 1468 1468 1466 1469 1475 1478 1469 1415 1395 1394 1393 1406 1405 1412 1424 1448 1453 1469 1431 1406 1405 1400 1401 1407 1412 1419 1426
1500 1497 1492 1488 1486 1490 1497 1493 1486 1481 1476 1474 1473 1474 1475 1473 1471 1470 1471 1473 1471 1473 1472 1475 1469 1456 1406 1381 1383 1385 1401 1409 1424 1443 1443 1446 1417 1384 1388 1389 1390 1393 1401 1405 1412
1506 1499 1495 1491 1504 1501 1494 1490 1486 1481 1478 1475 1475 1474 1473 1472 1475 1472 1469 1470 1467 1471 1476 1479 1469 1465 1412 1393 1385 1392 1388 1391 1406 1416 1433 1433 1406 1382 1382 1384 1383 1379 1383 1392 1402
1509 1507 1499 1497 1503 1504 1501 1490 1484 1482 1480 1478 1474 1471 1472 1472 1472 1472 1470 1470 1469 1474 1478 1479 1476 1470 1453 1418 1417 1399 1387 1388 1390 1412 1416 1413 1397 1388 1379 1378 1369 1362 1367 1379 1390
1512 1511 1508 1507 1502 1503 1501 1490 1485 1482 1479 1479 1474 1475 1476 1476 1471 1468 1465 1462 1465 1474 1477 1483 1474 1464 1445 1425 1415 1406 1383 1377 1388 1388 1401 1398 1400 1387 1380 1373 1363 1361 1363 1373 1383
1514 1513 1510 1507 1505 1502 1495 1490 1489 1483 1484 1478 1479 1475 1475 1476 1470 1468 1463 1463 1465 1472 1479 1480 1469 1459 1433 1395 1391 1392 1371 1370 1373 1375 1385 1390 1394 1376 1375 1375 1363 1361 1361 1369 1377
1512 1511 1510 1505 1503 1502 1496 1493 1488 1486 1478 1476 1476 1473 1468 1464 1463 1456 1454 1454 1459 1466 1475 1474 1467 1463 1430 1389 1377 1388 1392 1372 1365 1372 1379 1394 1385 1375 1381 1386 1377 1368 1364 1369 1377